Location: Nasgenstadt
(48.2786°N, 9.7553°E)
Time: 02:20:08
(UTC+02:00)

ISS - Visible Passes

Search period start: 23 July 2018 00:00
Search period end: 02 August 2018 00:00
Orbit: 402 x 408 km, 51.6° (Epoch: 23 July)

Date Brightness Start Highest point End Pass type
(mag) Time Alt. Az. Time Alt. Az. Time Alt. Az.
23 Jul -2.9 01:15:48 10° WNW 01:19:00 48° N 01:20:53 21° ENE visible
23 Jul -1.8 02:52:20 10° WNW 02:53:22 19° WNW 02:53:22 19° WNW visible
23 Jul -3.5 22:46:45 10° WSW 22:50:01 69° NNW 22:53:19 10° ENE visible
24 Jul -2.7 00:23:37 10° WNW 00:26:48 44° N 00:29:12 16° ENE visible
24 Jul -2.1 02:00:12 10° WNW 02:01:47 26° WNW 02:01:47 26° WNW visible
24 Jul -3.9 21:54:36 10° WSW 21:57:52 84° SSE 22:01:10 10° ENE visible
24 Jul -2.7 23:31:23 10° WNW 23:34:33 45° N 23:37:45 10° ENE visible
25 Jul -3.1 01:08:04 10° WNW 01:10:50 53° NNW 01:10:50 53° NNW visible
25 Jul -2.9 22:39:07 10° W 22:42:19 50° N 22:45:33 10° ENE visible
26 Jul -3.0 00:15:55 10° WNW 00:19:09 51° N 00:20:03 37° ENE visible
26 Jul -1.0 01:52:27 10° WNW 01:52:41 12° WNW 01:52:41 12° WNW visible
26 Jul -3.3 21:46:51 10° W 21:50:06 62° NNW 21:53:22 10° ENE visible
26 Jul -2.8 23:23:43 10° WNW 23:26:54 45° N 23:29:24 15° ENE visible
27 Jul -2.2 01:00:16 10° WNW 01:02:01 29° WNW 01:02:01 29° WNW visible
27 Jul -2.7 22:31:27 10° WNW 22:34:37 44° N 22:37:48 10° ENE visible
28 Jul -3.7 00:08:06 10° WNW 00:11:23 70° NNE 00:11:23 70° NNE visible
28 Jul -2.8 21:39:09 10° W 21:42:20 47° N 21:45:33 10° ENE visible
28 Jul -3.2 23:15:55 10° WNW 23:19:09 54° NNE 23:20:49 25° E visible
29 Jul -1.5 00:52:29 10° WNW 00:53:27 17° W 00:53:27 17° W visible
29 Jul -2.9 22:23:41 10° WNW 22:26:53 46° N 22:30:04 10° E visible
30 Jul -3.3 00:00:14 10° WNW 00:02:53 53° W 00:02:53 53° W visible
30 Jul -3.8 23:08:01 10° WNW 23:11:19 79° NNE 23:12:21 40° E visible
31 Jul -0.9 00:44:51 10° W 00:44:59 11° W 00:44:59 11° W visible
31 Jul -3.4 22:15:48 10° WNW 22:19:03 59° NNE 22:21:50 13° E visible
31 Jul -2.4 23:52:23 10° WNW 23:54:29 29° WSW 23:54:29 29° WSW visible
01 Aug -3.7 23:00:05 10° WNW 23:03:19 61° SSW 23:03:59 47° SSE visible
